Weather History for Sharm El Sheikh, Egypt

Change the Weather History Date:

Monday, August 5, 2013

  Actual Average Record
Temperature  
Mean Temperature 94 °F -  
Max Temperature 107 °F - - ()
Min Temperature 82 °F - - ()
Cooling Degree Days 30    
Growing Degree Days 44 (Base 50)    
Moisture  
Dew Point 57 °F    
Average Humidity 35    
Maximum Humidity 58    
Minimum Humidity 10    
Precipitation  
Precipitation 0.00 in - - ()
Sea Level Pressure  
Sea Level Pressure 29.63 in    
Wind  
Wind Speed 9 mph ()    
Max Wind Speed 16 mph    
Max Gust Speed -    
T = Trace of Precipitation, MM = Missing Value Source: Averaged Metar Reports

Daily Weather History Graph

Daily Weather History Graph

Search for Another Location

Airport:

Trip Planner

Search our weather history database for the weather conditions in past years. The results will help you decide how hot, cold, wet, or windy it might be!

Date:

Astronomy

Aug. 05, 2013 Rise Set
Actual Time 5:07 AM EET 6:29 PM EET
Civil Twilight 4:42 AM EET 6:54 PM EET
Nautical Twilight 4:12 AM EET 7:24 PM EET
Astronomical Twilight 3:41 AM EET 7:55 PM EET
Moon 3:43 AM EET (8/5) 5:19 PM EET (8/5)
Length of Visible Light 14h 12m
Length of Day
13h 22m
Waning Crescent, 2% of the Moon is Illuminated
Aug 5
Waning Crescent
Aug 6
New
Aug 14
First Quarter
Aug 21
Full
Aug 28
Last Quarter

Hourly Weather History & Observations

Time (EET) Temp. Heat Index Dew Point Humidity Pressure Visibility Wind Dir Wind Speed Gust Speed Precip Events Conditions
3:00 AM 84.2 °F 86.6 °F 66.2 °F 55% 29.62 in - North 13.8 mph - N/A   Clear
4:00 AM 84.2 °F 86.6 °F 66.2 °F 55% 29.62 in - North 13.8 mph - N/A   Clear
5:00 AM 82.4 °F 84.6 °F 66.2 °F 58% 29.62 in - North 16.1 mph - N/A   Clear
6:00 AM 84.2 °F 85.6 °F 64.4 °F 51% 29.65 in - North 11.5 mph - N/A   Clear
7:00 AM 91.4 °F 92.1 °F 62.6 °F 38% 29.65 in - North 4.6 mph - N/A   Clear
8:00 AM 89.6 °F 91.1 °F 64.4 °F 43% 29.68 in - North 12.7 mph - N/A   Clear
9:00 AM 91.4 °F 94.0 °F 66.2 °F 43% 29.68 in - NNE 11.5 mph - N/A   Clear
10:00 AM 93.2 °F 94.1 °F 62.6 °F 36% 29.68 in - NNE 11.5 mph - N/A   Clear
11:00 AM 95.0 °F 93.7 °F 57.2 °F 28% 29.68 in - NNE 11.5 mph - N/A   Clear
12:00 PM 98.6 °F - 51.8 °F 21% 29.65 in - NNE 11.5 mph - N/A   Clear
1:00 PM 100.4 °F - 44.6 °F 15% 29.65 in - NNE 12.7 mph - N/A   Clear
2:00 PM 102.2 °F - 41.0 °F 12% 29.62 in - NNE 12.7 mph - N/A   Clear
3:00 PM 107.6 °F - 42.8 °F 11% 29.62 in - ENE 3.5 mph - N/A   Clear
4:00 PM 107.6 °F - 39.2 °F 10% 29.59 in - SSE 5.8 mph - N/A   Clear
5:00 PM 102.2 °F - 46.4 °F 15% 29.59 in - South 4.6 mph - N/A   Clear
6:00 PM 95.0 °F 92.7 °F 53.6 °F 25% 29.59 in - South 5.8 mph - N/A   Clear
7:00 PM 91.4 °F - 51.8 °F 26% 29.59 in - SSW 4.6 mph - N/A   Clear
8:00 PM 87.8 °F 88.5 °F 62.6 °F 43% 29.62 in - SE 3.5 mph - N/A   Clear
9:00 PM 87.8 °F 88.5 °F 62.6 °F 43% 29.62 in - SE 3.5 mph - N/A   Clear
10:00 PM 84.2 °F 87.3 °F 68.0 °F 58% 29.65 in - NNE 4.6 mph - N/A   Clear
11:00 PM 84.2 °F 84.4 °F 60.8 °F 45% 29.65 in - ENE 2.3 mph - N/A   Clear